Location: 5810 Zion Rd, Cleves, OH 45002, USA
(39.1922°N, 84.7113°W)
Time: 22:31:49
(UTC-05:00)

Courier 1B Rocket - Visible Passes

Search period start: 07 December 2019 00:00
Search period end: 17 December 2019 00:00
Orbit: 920 x 1202 km, 28.2° (Epoch: 07 December)

Date Brightness Start Highest point End Pass type
(mag) Time Alt. Az. Time Alt. Az. Time Alt. Az.
08 Dec 7.4 06:49:17 10° SSW 06:53:32 18° SSE 06:57:38 10° ESE visible
09 Dec 7.5 05:49:34 10° S 05:52:45 14° SSE 05:55:51 10° SE visible
10 Dec 7.1 06:39:21 10° SW 06:44:33 23° SSE 06:49:30 10° ESE visible
11 Dec 7.2 05:38:59 10° SSW 05:43:43 19° SSE 05:48:15 10° ESE visible
12 Dec 7.3 04:40:33 13° S 04:42:52 15° SSE 04:46:35 10° SE visible
12 Dec 6.7 06:29:47 10° SW 06:35:35 28° S 06:41:04 10° ESE visible
13 Dec 6.8 05:30:10 14° SSW 05:34:42 24° SSE 05:40:02 10° ESE visible
14 Dec 7.0 04:33:17 20° SSE 04:33:48 21° SSE 04:38:47 10° ESE visible
14 Dec 6.5 06:20:26 10° SW 06:26:38 32° S 06:32:27 10° ESE visible
15 Dec 7.7 03:36:19 12° SE 03:36:19 12° SE 03:37:08 10° ESE visible
15 Dec 6.6 05:22:42 22° SSW 05:25:41 29° S 05:31:33 10° ESE visible
15 Dec 6.5 07:12:23 10° WSW 07:18:34 33° S 07:24:24 10° ESE visible
16 Dec 6.8 04:25:39 25° SSE 04:25:39 25° SSE 04:30:29 10° ESE visible
16 Dec 6.4 06:12:01 13° WSW 06:17:39 34° S 06:23:42 10° ESE visible
